Tracking 23758 objects as of 27-Oct-2021
HD Live streaming from Space Station
objects crossing your sky now

IRIDIUM 33 DEB

Track IRIDIUM 33 DEB now!
10-day predictions


NORAD ID: 36025
Int'l Code: 1997-051VG
Perigee: 667.5 km
Apogee: 720.6 km
Inclination: 86.6 °
Period: 98.5 minutes
Semi major axis: 7065 km
RCS: 0.0093 m2 (small)
Launch date: September 14, 1997
Source: United States (US)
Launch site: TYURATAM MISSILE AND SPACE COMPLEX (TTMTR)

Note: This is SATELLITE DEBRIS
aabbcc
Your satellite tracking list
Your tracking list is empty




NASA's NSSDC Master Catalog

Two Line Element Set (TLE):
1 36025U 97051VG  21293.63535916  .00006440  00000-0  12692-2 0  9999
2 36025  86.5570  65.3770 0037623 290.6853  69.0327 14.61947125527091
Source of the keplerian elements: AFSPC